When you browse on this site, cookies collect data to enhance your experience and personalize the content and advertising you see.
Visit our Privacy Policy to learn more. By continuing to use the site, you agree to this use of cookies and data.
  • In Hungary
  • List of Countries
  • For 7 days
  • Water Temperature
  • Satellite Maps
  • Weather Map
  • News
  • Weather Widgets
  • user-avatar
    Login

    Hourly Weather Kavala

    Today, 20 July, Saturday

    Time Temperature Precipitation Wind Pressure Humidity
    00:00 +24°C° 0 mm 2 mps 760 mmHg 63%
    01:00 +23°C° 0 mm 2 mps 760 mmHg 63%
    02:00 +23°C° 0 mm 2 mps 760 mmHg 64%
    03:00 +23°C° 0 mm 2 mps 760 mmHg 64%
    04:00 +21°C° 0 mm 2 mps 761 mmHg 64%
    05:00 +21°C° 0 mm 2 mps 761 mmHg 64%
    06:00 +24°C° 0 mm 2 mps 761 mmHg 59%
    07:00 +25°C° 0 mm 1 mps 761 mmHg 55%
    08:00 +27°C° 0 mm 1 mps 761 mmHg 51%
    09:00 +29°C° 0 mm 1 mps 761 mmHg 45%
    10:00 +30°C° 0 mm 1 mps 761 mmHg 38%
    11:00 +32°C° 0 mm 1 mps 761 mmHg 32%
    12:00 +32°C° 0 mm 2 mps 761 mmHg 31%
    13:00 +34°C° 0 mm 2 mps 761 mmHg 30%
    14:00 +34°C° 0 mm 2 mps 761 mmHg 29%
    15:00 +34°C° 0 mm 2 mps 761 mmHg 30%
    16:00 +34°C° 0 mm 2 mps 760 mmHg 31%
    17:00 +34°C° 0 mm 2 mps 760 mmHg 32%
    18:00 +31°C° 0 mm 2 mps 760 mmHg 36%
    19:00 +29°C° 0 mm 1 mps 761 mmHg 41%
    20:00 +28°C° 0 mm 1 mps 761 mmHg 45%
    21:00 +27°C° 0 mm 2 mps 761 mmHg 47%
    22:00 +26°C° 0 mm 2 mps 762 mmHg 48%
    23:00 +26°C° 0 mm 3 mps 762 mmHg 50%

    Tomorrow, 21 July, Sunday

    Time Temperature Precipitation Wind Pressure Humidity
    00:00 +25°C° 0 mm 2 mps 762 mmHg 53%
    01:00 +24°C° 0 mm 2 mps 762 mmHg 56%
    02:00 +24°C° 0 mm 1 mps 762 mmHg 59%
    03:00 +23°C° 0 mm 1 mps 762 mmHg 59%
    04:00 +23°C° 0 mm 1 mps 762 mmHg 59%
    05:00 +23°C° 0 mm 2 mps 762 mmHg 58%
    06:00 +25°C° 0 mm 1 mps 762 mmHg 55%
    07:00 +26°C° 0 mm 1 mps 762 mmHg 51%
    08:00 +28°C° 0 mm 1 mps 762 mmHg 48%
    09:00 +30°C° 0 mm 1 mps 762 mmHg 44%
    10:00 +31°C° 0 mm 1 mps 762 mmHg 40%
    11:00 +33°C° 0 mm 1 mps 762 mmHg 36%
    12:00 +33°C° 0 mm 1 mps 762 mmHg 35%
    13:00 +34°C° 0 mm 1 mps 762 mmHg 35%
    14:00 +35°C° 0 mm 2 mps 761 mmHg 34%
    15:00 +34°C° 0 mm 1 mps 761 mmHg 35%
    16:00 +34°C° 0 mm 1 mps 761 mmHg 36%
    17:00 +34°C° 0 mm 1 mps 761 mmHg 37%
    18:00 +32°C° 0 mm 1 mps 761 mmHg 41%
    19:00 +30°C° 0 mm 1 mps 761 mmHg 45%
    20:00 +29°C° 0 mm 1 mps 761 mmHg 49%
    21:00 +28°C° 0 mm 1 mps 761 mmHg 50%
    22:00 +27°C° 0 mm 2 mps 762 mmHg 51%
    23:00 +26°C° 0 mm 2 mps 762 mmHg 52%

    Day after tomorrow, 22 July, Monday

    Time Temperature Precipitation Wind Pressure Humidity
    00:00 +26°C° 0 mm 2 mps 762 mmHg 54%
    01:00 +25°C° 0 mm 1 mps 762 mmHg 55%
    02:00 +25°C° 0 mm 1 mps 762 mmHg 57%
    03:00 +25°C° 0 mm 1 mps 762 mmHg 57%
    04:00 +24°C° 0 mm 1 mps 761 mmHg 57%
    05:00 +24°C° 0 mm 2 mps 761 mmHg 57%
    06:00 +26°C° 0 mm 1 mps 761 mmHg 54%
    07:00 +28°C° 0 mm 1 mps 761 mmHg 51%
    08:00 +30°C° 0 mm 1 mps 761 mmHg 49%
    09:00 +31°C° 0 mm 1 mps 761 mmHg 45%
    10:00 +33°C° 0 mm 1 mps 761 mmHg 40%
    11:00 +34°C° 0 mm 1 mps 761 mmHg 36%
    12:00 +36°C° 0 mm 2 mps 761 mmHg 36%
    13:00 +36°C° 0 mm 2 mps 761 mmHg 35%
    14:00 +36°C° 0 mm 2 mps 760 mmHg 35%
    15:00 +36°C° 0 mm 2 mps 760 mmHg 36%
    16:00 +36°C° 0 mm 2 mps 759 mmHg 37%
    17:00 +35°C° 0 mm 1 mps 759 mmHg 37%
    18:00 +33°C° 0 mm 1 mps 759 mmHg 41%
    19:00 +32°C° 0 mm 1 mps 759 mmHg 45%
    20:00 +30°C° 0 mm 1 mps 759 mmHg 49%
    21:00 +29°C° 0 mm 1 mps 759 mmHg 51%
    22:00 +29°C° 0 mm 2 mps 759 mmHg 53%
    23:00 +28°C° 0 mm 2 mps 759 mmHg 55%

    23 July, Tuesday

    Time Temperature Precipitation Wind Pressure Humidity
    00:00 +27°C° 0 mm 2 mps 759 mmHg 56%
    01:00 +27°C° 0 mm 1 mps 759 mmHg 57%
    02:00 +26°C° 0 mm 1 mps 759 mmHg 58%
    03:00 +26°C° 0 mm 1 mps 759 mmHg 59%
    04:00 +26°C° 0 mm 1 mps 759 mmHg 60%
    05:00 +25°C° 0 mm 1 mps 758 mmHg 60%
    06:00 +27°C° 0 mm 1 mps 758 mmHg 57%
    07:00 +29°C° 0 mm 1 mps 758 mmHg 54%
    08:00 +30°C° 0 mm 1 mps 758 mmHg 51%
    09:00 +31°C° 0 mm 1 mps 758 mmHg 48%
    10:00 +32°C° 0 mm 2 mps 758 mmHg 44%
    11:00 +35°C° 0 mm 2 mps 758 mmHg 41%
    12:00 +35°C° 0 mm 3 mps 758 mmHg 41%
    13:00 +35°C° 0 mm 3 mps 758 mmHg 40%
    14:00 +35°C° 0 mm 3 mps 757 mmHg 40%
    15:00 +34°C° 0 mm 3 mps 757 mmHg 43%
    16:00 +33°C° 0 mm 3 mps 757 mmHg 46%
    17:00 +31°C° 0 mm 3 mps 757 mmHg 49%
    18:00 +30°C° 0 mm 3 mps 757 mmHg 52%
    19:00 +29°C° 0 mm 4 mps 758 mmHg 56%
    20:00 +28°C° 0 mm 4 mps 758 mmHg 59%
    21:00 +27°C° 0 mm 4 mps 758 mmHg 62%
    22:00 +26°C° 0 mm 4 mps 759 mmHg 64%
    23:00 +26°C° 0 mm 4 mps 759 mmHg 67%

    24 July, Wednesday

    Time Temperature Precipitation Wind Pressure Humidity
    00:00 +25°C° 0 mm 4 mps 759 mmHg 66%
    01:00 +25°C° 0 mm 3 mps 759 mmHg 66%
    02:00 +25°C° 0 mm 3 mps 759 mmHg 66%
    03:00 +25°C° 0 mm 3 mps 759 mmHg 66%
    04:00 +24°C° 0 mm 2 mps 759 mmHg 65%
    05:00 +24°C° 0 mm 2 mps 759 mmHg 65%
    06:00 +25°C° 0 mm 2 mps 760 mmHg 61%
    07:00 +26°C° 0 mm 2 mps 760 mmHg 57%
    08:00 +27°C° 0 mm 2 mps 760 mmHg 53%
    09:00 +28°C° 0 mm 2 mps 760 mmHg 49%
    10:00 +30°C° 0 mm 2 mps 760 mmHg 44%
    11:00 +31°C° 0 mm 2 mps 760 mmHg 39%
    12:00 +31°C° 0 mm 2 mps 760 mmHg 38%
    13:00 +31°C° 0 mm 2 mps 760 mmHg 38%
    14:00 +31°C° 0 mm 2 mps 759 mmHg 37%
    15:00 +31°C° 0 mm 2 mps 759 mmHg 39%
    16:00 +31°C° 0 mm 2 mps 759 mmHg 41%
    17:00 +31°C° 0 mm 2 mps 759 mmHg 43%
    18:00 +30°C° 0 mm 2 mps 759 mmHg 45%
    19:00 +29°C° 0 mm 1 mps 759 mmHg 48%
    20:00 +27°C° 0 mm 1 mps 759 mmHg 51%
    21:00 +27°C° 0 mm 2 mps 760 mmHg 52%
    22:00 +26°C° 0 mm 2 mps 760 mmHg 53%
    23:00 +25°C° 0 mm 3 mps 760 mmHg 54%

    25 July, Thursday

    Time Temperature Precipitation Wind Pressure Humidity
    00:00 +25°C° 0 mm 2 mps 760 mmHg 56%
    01:00 +24°C° 0 mm 2 mps 760 mmHg 58%
    02:00 +23°C° 0 mm 1 mps 760 mmHg 60%
    03:00 +23°C° 0 mm 1 mps 760 mmHg 61%
    04:00 +23°C° 0 mm 2 mps 760 mmHg 62%
    05:00 +23°C° 0 mm 2 mps 761 mmHg 63%
    06:00 +25°C° 0 mm 2 mps 761 mmHg 58%
    07:00 +26°C° 0 mm 2 mps 761 mmHg 53%
    08:00 +28°C° 0 mm 1 mps 761 mmHg 48%
    09:00 +30°C° 0 mm 1 mps 761 mmHg 44%
    10:00 +31°C° 0 mm 1 mps 761 mmHg 39%
    11:00 +33°C° 0 mm 1 mps 761 mmHg 35%
    12:00 +35°C° 0 mm 2 mps 761 mmHg 34%
    13:00 +35°C° 0 mm 2 mps 760 mmHg 32%
    14:00 +36°C° 0 mm 2 mps 760 mmHg 31%
    15:00 +35°C° 0 mm 2 mps 760 mmHg 33%
    16:00 +35°C° 0 mm 2 mps 759 mmHg 34%
    17:00 +35°C° 0 mm 2 mps 759 mmHg 35%
    18:00 +32°C° 0 mm 2 mps 759 mmHg 39%
    19:00 +31°C° 0 mm 2 mps 759 mmHg 43%
    20:00 +29°C° 0 mm 2 mps 759 mmHg 48%
    21:00 +28°C° 0 mm 2 mps 760 mmHg 50%
    22:00 +27°C° 0 mm 2 mps 760 mmHg 52%
    23:00 +27°C° 0 mm 3 mps 760 mmHg 54%
    Show more